Miami, FL

2:46 PM EST on February 06, 2016 (GMT -0500)
U of Miami Health System WeatherSTEM | | Change Station
CLOSE
Current Station
Personal Weather Station
Location: Miami, FL
Elevation: 68 ft
Nearby Weather Stations

Elev 68 ft 25.79 °N, 80.22 °W | Updated 13 minutes ago

Mostly Cloudy
Mostly Cloudy
74.9 °F
Feels Like 76 °F
N
4.0
Wind Variable Wind from East
Gusts 20.0 mph

Today
High -- | Low -- °F
--% Chance of Precip.
Yesterday
High -- | Low -- °F
Precip. -- in
Pressure 30.05 in
Visibility 10.0 miles
Clouds Few 3000 ft
Scattered Clouds 7500 ft
Mostly Cloudy 25000 ft
Heat Index 76 °F
Dew Point 67 °F
Humidity 75%
Rainfall 0.08 in
Snow Depth Not available.
7:02 AM 6:08 PM
Waning Crescent, 4% visible
METAR KMIA 061853Z 12009KT 10SM FEW030 SCT075 BKN250 26/18 A3005 RMK AO2 SLP175 T02560178
Pressure 30.05 in
Visibility 10.0 miles
Clouds Few 3000 ft
Scattered Clouds 7500 ft
Mostly Cloudy 25000 ft
Heat Index 76 °F
Dew Point 67 °F
Humidity 75%
Rainfall 0.08 in
Snow Depth Not available.
7:02 AM 6:08 PM
Waning Crescent, 4% visible
METAR KMIA 061853Z 12009KT 10SM FEW030 SCT075 BKN250 26/18 A3005 RMK AO2 SLP175 T02560178

10-Day Weather Forecast

Almanac

Astronomy

Feb. 06, 2016 Rise Set
Actual Time
Civil Twilight
Nautical Twilight
Astronomical Twilight
Moon
Length of Visible Light
Length of Day
Tomorrow will be .
, % of the Moon is Illuminated

Today's Extremes

State Highs State Lows

Community

WunderPhotos

Upload Photos

1,891,037 photos uploaded!

WunderBlog® & News

Nearby

Air Quality

  Air Quality AQ Index Pollutant
Not available.

Snow Depth

Station Depth Elevation

Earthquake Activity

City Distance Mag. Time & Date
Minimum magnitude displayed is 2.5.

Coastal Water Temperatures

Place Temperature

Stations

Nearby Weather Stations

Station Location Temp. Windchill Dew Point Humidity Wind Precip. Elev Updated Type
                   

Watches & Warnings

There are currently no watches in effect.